Theta_e
352 354 348 347 347 345 341 336 316 323 321 312 313 319 316 328 329 326 325 329 325 332 336 337 334 334 330 326 327 330 331 323 328 313 307 327 347 348 349 351 353 353 352 354 356 357 359 362 364 363 364 364 363 362 363 364 365 364 364 364 365 365 365 365 365 364 364 364 363 363 363 363 363 363 363 362 362 362 362 362 361 362 362 361 362 362 360 359 359 360 360 361 362 361 359 358 360
351 348 347 347 343 343 330 336 319 316 317 313 315 321 322 326 328 324 324 326 327 332 338 336 337 337 337 334 333 331 329 333 334 332 337 345 348 348 351 353 353 352 353 355 356 357 359 361 364 363 363 364 363 362 364 365 365 365 365 365 365 365 365 364 364 364 363 364 363 363 363 363 363 363 363 363 362 362 363 362 362 362 362 361 361 360 357 358 358 358 359 361 361 361 361 359 359
349 348 345 346 343 340 334 333 315 316 311 307 314 320 328 324 324 327 328 330 333 335 337 335 335 335 335 335 327 329 320 338 336 338 339 346 341 344 351 354 354 354 354 355 356 358 358 361 363 364 364 363 363 364 365 365 365 365 365 364 364 364 364 364 364 365 364 364 362 362 362 362 362 362 361 362 362 362 362 362 362 362 361 360 361 360 360 357 358 358 359 360 360 361 360 359 360
350 348 342 343 331 337 327 325 320 316 312 313 314 324 325 325 325 328 332 333 336 335 335 334 330 335 333 326 329 334 331 332 338 338 337 341 342 348 352 354 355 355 356 356 357 357 358 361 364 366 364 364 364 365 365 364 365 365 364 364 364 364 364 363 364 364 363 362 362 362 362 362 362 361 361 362 362 361 362 362 361 359 361 361 360 360 359 357 355 357 357 358 360 359 359 360 360
347 348 347 341 333 325 324 322 320 320 312 316 313 324 326 328 327 331 333 337 338 338 336 334 330 336 340 332 335 326 328 338 339 342 341 346 350 351 353 355 355 354 355 356 357 357 359 364 365 365 365 365 365 365 364 365 364 364 364 364 364 363 363 363 363 363 362 362 361 361 362 362 361 361 361 361 361 360 358 357 355 356 358 361 360 359 357 355 354 356 358 359 359 359 360 360 360
345 344 347 343 329 338 330 319 317 317 322 326 319 322 328 331 330 332 333 337 338 338 339 335 329 331 330 333 337 331 337 328 339 342 344 345 350 353 354 355 354 354 355 356 356 357 359 363 364 364 364 365 365 364 364 364 363 363 363 362 362 361 363 363 362 362 362 362 361 362 362 361 362 361 361 361 361 360 359 357 355 355 356 357 359 360 358 357 357 358 357 357 358 358 360 359 361
340 341 342 340 336 337 319 317 316 318 323 327 325 326 329 332 333 332 331 332 336 336 339 332 334 332 328 334 338 341 346 344 341 342 348 349 352 354 354 354 354 353 355 355 356 358 360 363 363 364 365 364 365 364 364 363 363 363 362 362 362 362 362 363 362 362 362 362 362 361 362 361 361 360 359 359 356 358 359 356 355 355 357 358 359 359 359 358 359 359 356 353 357 359 361 360 358
350 339 336 328 324 326 318 318 318 320 324 330 332 330 331 333 335 332 332 330 329 330 332 334 335 331 328 338 327 341 346 348 347 350 350 350 352 353 354 354 353 353 355 356 357 359 362 363 364 364 363 364 364 363 363 363 363 363 363 363 362 362 362 363 363 362 361 362 362 362 362 361 360 359 358 357 354 353 355 355 352 353 354 356 358 359 361 361 359 358 358 358 359 360 361 360 361
344 338 342 330 321 325 319 317 318 328 327 331 331 334 337 337 337 334 331 334 332 334 332 332 332 327 328 332 332 340 344 348 350 351 350 351 351 353 353 353 353 353 355 356 358 359 359 364 363 364 363 364 364 363 363 363 363 362 362 362 362 362 362 362 362 361 361 361 362 362 362 361 360 358 356 355 354 354 355 356 354 354 353 356 358 358 361 362 362 361 361 360 359 361 360 360 359
336 339 328 325 325 315 315 314 315 322 326 331 331 332 334 336 335 337 332 331 332 332 333 337 334 328 333 328 332 337 341 349 349 348 350 350 352 352 352 353 354 354 354 356 358 359 360 364 363 363 364 364 363 362 363 363 362 362 362 363 362 361 361 361 362 361 361 361 362 361 360 360 358 356 354 353 354 355 356 357 355 353 353 355 357 360 362 361 361 361 360 361 361 359 359 358 359
330 338 337 322 316 313 311 314 320 326 327 332 332 336 337 337 336 333 335 331 334 331 332 335 330 329 331 331 334 346 348 348 346 344 349 350 351 351 351 353 354 355 354 356 358 359 359 360 364 364 364 364 363 362 362 363 362 361 362 363 361 361 361 361 361 361 361 362 361 361 360 360 359 357 356 355 355 355 355 356 355 355 354 356 356 361 360 361 361 361 361 361 360 359 358 358 359
328 329 330 317 314 311 311 314 318 323 328 331 330 336 338 337 335 331 331 329 330 330 330 333 328 334 328 330 332 342 345 346 346 347 349 350 350 352 352 353 354 355 356 356 359 358 359 361 361 364 364 364 363 362 362 363 362 362 362 362 362 361 361 361 361 362 362 362 361 360 361 360 360 359 357 356 357 358 357 356 357 356 355 356 359 359 360 362 361 361 361 359 358 359 358 357 357
329 330 324 316 315 316 316 315 318 323 324 327 330 336 342 336 334 333 333 333 332 329 329 337 336 335 325 329 338 342 341 345 347 348 349 349 350 352 352 352 353 355 356 358 357 357 358 358 359 362 362 363 362 362 363 362 362 362 361 361 361 361 361 361 361 361 363 362 361 361 361 360 361 359 358 358 359 359 359 358 357 358 357 358 358 360 361 360 359 360 360 360 358 357 354 357 357
331 331 325 314 317 316 316 315 319 316 318 329 334 337 339 335 337 336 333 329 329 330 335 337 337 334 329 333 334 335 340 346 347 348 349 350 351 351 351 352 353 354 356 356 356 357 357 358 360 361 361 361 361 362 362 363 362 361 361 361 361 362 361 362 362 361 362 360 360 360 360 362 361 359 359 359 359 359 359 358 359 359 358 358 359 360 359 359 360 360 360 358 357 356 358 356 356
332 336 327 320 315 313 317 313 317 317 316 330 333 335 335 340 341 337 335 328 331 338 338 341 337 332 324 329 328 334 340 345 346 349 350 350 350 350 351 352 353 354 355 356 357 357 356 358 359 358 360 358 359 358 358 361 361 363 362 361 362 362 361 362 362 360 361 360 360 359 360 361 360 360 359 359 359 358 359 359 359 359 358 359 359 359 358 360 360 360 358 358 358 360 360 357 357
336 336 328 318 315 312 316 317 321 316 317 331 335 338 336 339 343 336 339 342 333 337 338 331 339 334 333 332 334 338 343 345 348 349 349 348 349 350 351 352 352 353 354 355 356 356 357 357 357 357 357 357 358 358 358 359 360 360 362 363 362 361 361 361 362 361 360 359 359 359 358 359 360 359 358 357 357 359 357 357 357 359 359 357 359 359 359 360 360 359 360 359 359 360 359 358 358
339 336 322 317 313 313 315 318 319 312 322 333 337 337 331 332 343 341 346 347 331 332 337 335 334 339 334 334 339 342 344 347 349 348 347 346 346 347 348 349 351 352 354 354 354 355 357 357 356 356 356 356 357 358 358 358 360 359 360 361 363 363 362 362 361 360 360 360 360 356 355 357 359 357 357 356 358 360 358 357 356 357 358 358 358 360 359 360 360 360 359 358 360 359 360 360 360
337 325 320 313 314 315 321 321 322 326 326 331 334 337 333 330 337 338 344 337 337 337 335 335 337 337 339 340 342 343 344 346 346 344 343 342 344 343 344 347 348 348 350 352 355 355 356 357 355 356 355 356 357 358 358 357 357 356 357 358 361 359 360 360 360 359 358 358 359 356 355 358 353 353 356 357 358 359 360 358 358 358 357 358 358 359 359 360 360 360 359 359 360 360 360 356 360
328 323 319 313 314 319 327 328 329 328 327 332 335 338 334 332 336 337 331 332 332 330 331 333 332 335 338 339 340 341 344 344 344 343 341 340 341 341 342 345 346 347 349 352 354 355 355 356 356 356 355 356 357 357 357 355 358 354 357 358 361 361 360 358 359 360 355 356 359 358 359 357 359 355 355 358 360 357 359 358 359 358 357 357 358 360 359 360 360 360 359 360 360 360 355 355 355
330 322 314 316 322 324 328 331 331 331 334 332 334 336 335 336 336 338 332 330 332 327 326 328 329 330 333 336 338 340 343 343 343 342 341 340 340 341 342 343 344 346 349 351 353 355 356 355 355 355 355 356 356 356 357 355 356 356 356 357 358 359 359 360 357 357 356 357 356 356 357 358 357 358 358 357 357 354 359 359 358 358 358 358 361 361 361 360 363 362 360 363 361 359 356 355 354
325 324 317 320 325 323 327 335 335 336 335 333 334 335 333 336 336 336 332 328 328 329 330 329 329 331 333 335 337 339 341 341 342 342 341 340 341 342 342 343 344 346 350 352 353 354 355 355 355 355 355 356 355 357 355 354 355 355 356 356 357 357 357 356 356 356 357 356 356 357 357 357 355 355 355 354 354 355 354 354 354 356 356 358 360 355 356 357 357 355 355 357 355 358 358 355 353
322 323 326 325 325 322 329 333 335 334 335 334 333 332 331 338 336 334 332 325 324 329 332 333 333 334 334 334 336 339 339 340 340 340 340 340 339 339 342 343 346 348 351 349 351 354 355 356 356 354 355 355 355 355 354 357 356 354 355 356 356 356 356 356 356 356 356 356 356 358 357 354 354 353 353 353 353 353 353 354 354 354 354 354 358 353 353 354 354 354 354 355 356 357 357 356 359
315 319 322 323 324 322 328 333 335 335 333 332 331 335 336 333 331 335 332 329 333 337 336 335 335 336 336 337 337 337 338 338 339 339 340 339 339 340 341 343 344 346 348 349 352 354 356 356 356 355 354 354 354 355 356 357 354 355 354 355 354 354 355 355 355 355 356 356 357 358 354 353 352 352 352 352 352 352 351 353 353 353 352 353 356 353 353 353 354 354 353 355 355 357 356 354 355
321 317 321 322 322 320 324 331 336 334 333 332 335 337 333 332 327 335 331 334 336 337 337 336 336 337 337 336 337 337 338 338 339 340 341 340 340 340 342 343 345 347 347 348 351 353 355 355 356 356 354 353 353 354 355 354 354 354 356 360 356 357 355 355 355 355 357 357 358 359 358 353 352 352 351 352 352 353 353 353 353 353 353 353 356 354 353 353 353 354 354 355 355 356 356 356 355
318 318 321 322 323 323 323 330 334 334 333 335 335 332 331 333 332 334 332 335 336 336 337 337 336 336 336 336 336 337 337 338 339 340 341 341 340 342 343 344 345 346 345 347 351 352 353 355 355 355 354 354 353 355 355 354 354 354 357 356 353 360 354 355 355 357 356 359 359 359 358 352 352 352 351 351 352 352 352 353 353 353 353 353 356 354 354 353 354 353 354 354 355 356 355 356 356
320 320 322 321 320 321 320 328 332 333 333 334 332 330 333 335 336 331 333 336 337 336 336 336 335 334 335 335 336 336 337 337 339 339 340 340 340 340 341 343 345 344 346 348 350 351 353 355 354 354 354 353 354 355 354 354 353 353 355 355 354 360 354 355 357 356 356 357 357 358 358 353 353 352 352 351 352 351 352 353 353 352 353 354 355 355 356 355 355 354 354 355 356 356 355 360 356
319 315 315 315 316 314 316 322 329 332 332 333 329 328 330 334 331 323 334 337 336 334 334 335 334 333 335 335 335 336 336 337 338 339 339 338 338 339 340 343 343 344 346 347 349 350 353 353 353 354 354 356 354 354 354 353 354 353 355 355 355 357 355 357 358 357 356 356 357 357 357 357 353 352 352 351 351 351 351 351 351 352 352 355 355 353 356 355 354 355 355 355 356 356 356 357 355
312 312 310 309 309 308 309 324 329 332 330 333 330 327 330 332 329 325 332 337 336 332 332 333 333 333 334 334 335 336 336 337 338 339 336 336 336 338 339 341 342 344 345 346 349 351 352 352 353 354 354 355 354 354 356 353 353 353 355 355 355 356 356 356 356 356 358 356 358 357 355 356 356 352 352 352 352 351 351 351 351 352 352 353 355 355 356 357 357 357 357 358 357 356 356 357 356
312 311 306 307 306 304 313 325 329 331 328 332 331 326 324 326 324 329 335 336 334 331 331 332 332 333 334 334 334 334 335 336 337 337 337 337 338 340 339 342 343 343 346 348 349 350 351 352 352 353 354 355 353 353 354 354 353 353 354 354 355 357 356 356 356 356 356 355 357 357 356 356 356 353 353 354 356 351 351 351 352 354 353 353 355 357 358 356 356 359 360 360 356 355 357 357 358
311 309 305 304 302 301 304 328 330 328 330 332 329 309 314 323 328 331 335 334 333 330 330 331 332 333 334 333 332 333 335 335 335 336 337 337 338 339 339 341 344 344 345 347 349 349 351 353 354 354 354 353 353 353 353 353 353 353 354 354 357 357 356 355 357 355 356 355 357 357 356 357 356 354 353 354 354 352 352 352 351 353 354 354 355 355 355 355 356 356 358 357 362 357 355 354 353
305 306 304 299 295 296 302 325 328 325 330 331 328 310 311 319 327 331 334 334 331 328 329 330 331 332 333 333 331 332 333 335 335 337 337 338 338 339 339 341 343 344 345 346 347 349 351 352 354 353 355 353 355 352 353 352 353 353 353 352 354 356 355 355 356 355 355 354 356 356 356 357 355 354 354 354 353 353 352 352 351 353 354 355 354 354 354 353 352 353 356 355 355 355 354 358 356
300 302 297 295 297 294 300 322 327 322 327 331 324 312 313 318 325 331 334 333 331 328 328 329 330 331 332 333 330 331 332 334 335 336 337 337 338 338 339 339 342 343 344 345 348 350 350 352 354 352 353 352 353 353 352 352 353 353 352 355 353 355 356 354 355 355 354 353 355 354 355 358 355 354 354 355 353 353 353 352 352 353 355 354 352 353 354 354 353 352 355 355 355 354 357 353 352
298 299 295 297 295 295 298 321 327 327 326 328 323 311 314 317 326 331 334 332 331 328 327 328 329 330 331 332 329 330 331 332 334 335 336 337 338 338 338 339 341 343 344 345 346 348 350 351 354 352 352 351 353 353 352 352 352 352 351 353 352 354 354 354 354 354 353 353 353 354 355 358 355 354 354 355 354 353 353 353 352 354 355 353 353 351 352 353 353 354 354 359 354 353 350 351 350
295 296 297 297 298 296 297 300 325 325 326 321 325 318 315 318 326 331 333 332 330 328 328 328 329 330 330 331 329 329 329 330 331 333 334 336 337 337 338 342 342 343 344 345 347 348 349 350 352 352 352 352 352 352 352 352 352 352 350 350 356 353 353 353 353 354 352 352 352 353 354 358 355 353 354 354 353 354 353 353 352 354 355 352 351 350 349 351 351 353 354 354 354 353 352 351 350
295 295 294 294 295 296 297 295 302 322 323 321 322 320 319 319 326 330 331 332 330 328 328 328 328 329 329 330 329 328 328 329 330 333 334 335 336 336 337 339 341 343 344 344 346 348 349 350 352 352 352 351 352 352 353 352 351 350 349 349 351 351 352 352 353 352 352 352 352 352 353 356 356 353 353 354 353 355 354 352 352 353 354 352 350 349 347 349 351 351 352 352 353 353 354 352 352
297 299 297 297 296 296 298 300 302 320 319 318 318 317 319 320 323 329 331 332 330 329 329 329 329 329 329 330 330 328 328 329 331 333 334 335 335 335 336 338 340 342 343 344 345 346 348 349 350 351 352 351 351 351 352 350 349 349 346 347 348 351 350 353 352 352 352 351 351 351 353 355 355 353 353 353 353 354 352 352 352 352 352 351 349 347 346 348 350 350 349 349 349 353 356 354 349
301 300 300 298 297 298 301 301 304 310 319 317 318 319 320 319 322 327 330 331 330 329 328 328 328 328 328 329 330 329 328 328 331 332 333 334 334 335 336 337 339 341 342 343 344 345 347 348 349 348 350 351 350 349 349 348 346 345 345 345 346 347 349 350 352 351 351 351 352 351 352 354 354 353 353 353 352 355 353 352 352 352 352 350 349 348 348 348 349 350 350 355 350 349 349 351 349
302 301 299 297 298 297 301 303 304 304 309 298 311 318 318 320 320 326 330 329 327 328 328 328 328 328 329 329 329 330 330 330 332 331 332 333 333 334 335 336 339 338 339 341 342 344 346 347 347 348 350 350 350 349 350 349 347 347 345 345 346 346 349 350 349 350 350 351 352 351 353 353 353 353 354 353 353 354 352 351 351 351 351 350 349 351 349 352 352 350 349 350 352 351 348 349 348
301 300 298 297 297 298 301 301 303 304 302 299 299 303 309 317 320 324 328 328 329 330 330 329 329 328 328 329 329 330 331 329 330 331 332 332 332 333 333 335 337 338 339 340 342 344 345 345 347 348 349 349 350 350 349 349 347 348 347 346 347 347 350 353 351 352 353 351 352 352 353 353 353 352 354 353 353 354 354 352 351 352 351 352 351 350 352 351 351 349 351 349 349 345 352 350 348
300 299 297 296 297 297 294 299 301 303 301 298 299 298 299 304 314 322 328 329 329 331 331 331 331 329 329 329 330 330 331 330 329 330 331 332 332 332 333 334 336 337 338 339 341 342 344 345 346 347 348 349 349 350 352 350 348 348 348 347 348 349 349 354 353 354 353 353 352 352 353 353 352 352 353 353 354 355 354 353 352 352 351 353 352 350 350 350 352 350 351 353 348 345 340 341 348
299 300 298 298 298 297 298 299 300 301 300 301 299 301 301 309 311 317 324 329 329 329 330 330 332 332 332 332 331 332 332 331 330 331 332 332 331 331 332 334 336 336 337 338 340 342 343 344 345 346 347 349 349 351 351 349 349 345 346 346 350 350 351 350 349 349 352 353 353 352 352 353 352 352 354 354 355 355 355 354 353 353 352 352 353 350 350 350 352 353 353 354 349 345 339 338 345
296 299 301 300 300 299 299 299 299 294 293 295 299 290 294 304 313 316 321 325 325 328 327 328 329 331 331 330 330 332 333 334 332 331 332 333 332 332 333 334 334 335 336 338 340 342 343 343 345 346 347 348 349 350 350 348 347 343 341 342 342 343 343 345 345 346 348 350 352 354 354 354 353 353 354 354 355 356 355 355 355 354 353 353 353 351 350 351 352 354 354 354 352 344 343 338 339
296 297 301 302 302 301 300 299 297 289 290 298 298 291 287 296 311 316 320 322 323 325 326 327 328 329 330 331 331 331 332 333 334 334 334 334 333 332 332 333 334 335 336 338 339 341 342 343 344 345 345 346 348 349 349 349 345 343 342 342 343 343 342 344 348 349 350 352 355 354 355 355 354 353 355 356 355 357 357 356 356 356 355 354 356 354 353 352 352 354 355 352 352 351 341 341 338
294 298 300 301 299 298 298 298 296 292 296 297 295 294 289 289 300 316 320 320 321 322 323 325 327 328 329 330 331 332 332 333 333 334 334 335 335 333 332 334 335 336 337 338 338 340 341 342 343 344 345 347 347 348 348 349 345 343 341 342 344 343 343 344 346 348 351 354 354 354 355 356 356 356 356 357 356 356 358 356 356 357 357 355 356 356 355 355 354 355 358 354 351 353 343 343 339
296 299 301 298 299 298 297 296 292 292 293 291 290 297 293 292 301 314 320 317 318 320 322 323 325 327 328 330 331 332 333 334 334 334 334 335 335 335 334 334 336 337 337 338 338 339 340 342 343 344 343 346 346 348 348 348 348 344 342 341 342 345 344 345 348 350 351 355 353 355 355 356 357 357 358 358 358 358 359 358 356 357 357 357 360 358 357 356 356 355 357 352 351 351 346 343 342
302 302 302 300 298 297 296 293 292 293 290 288 290 293 290 285 289 313 318 317 317 320 323 324 325 326 328 329 330 331 332 333 334 335 335 336 337 337 336 335 336 337 338 340 339 339 339 340 342 342 342 344 346 346 348 347 347 347 343 340 341 342 345 345 346 346 348 352 352 353 355 356 357 357 358 359 358 359 360 360 357 356 358 359 361 360 358 357 357 356 356 354 352 351 346 347 342
301 299 298 297 295 296 298 293 292 289 288 287 293 291 291 285 288 310 312 315 320 321 323 325 327 327 328 329 330 331 331 332 333 334 335 336 338 338 337 335 335 337 338 339 339 339 339 339 341 341 342 343 346 346 347 346 347 346 343 342 341 341 342 342 342 344 347 350 350 352 354 355 357 357 359 359 359 359 360 361 359 358 359 361 363 362 359 358 358 357 356 353 351 349 347 345 348
300 296 294 292 295 292 292 287 291 287 282 286 290 290 290 287 289 297 310 316 321 323 322 324 326 327 328 329 330 331 331 331 332 333 333 335 336 337 337 335 335 335 337 337 338 338 339 339 340 340 341 342 344 346 346 346 346 346 345 343 341 341 342 341 342 342 345 348 349 350 353 355 355 357 358 358 358 359 360 360 362 360 360 361 361 363 362 360 360 358 356 354 351 348 351 349 350
295 295 294 289 284 286 285 288 286 284 285 290 289 289 290 288 293 304 309 310 312 317 323 326 327 328 329 330 331 332 332 332 332 332 332 333 334 335 335 335 335 334 335 336 337 338 339 339 339 339 339 342 343 345 345 346 346 345 345 343 342 342 342 341 341 342 345 347 349 349 350 352 354 354 355 356 357 358 359 359 359 359 360 361 362 362 362 361 361 359 357 355 353 350 351 349 348
291 291 289 286 283 281 278 279 281 282 288 290 291 291 290 289 297 309 311 313 315 318 320 322 327 329 329 331 332 332 332 332 332 332 332 332 333 335 336 335 335 334 335 335 336 338 339 339 339 339 339 341 343 344 345 345 345 346 346 344 343 343 341 341 341 341 343 347 349 349 350 351 352 353 354 355 357 358 359 360 361 360 360 361 362 362 362 361 360 359 358 356 354 354 352 349 349
290 291 291 289 284 282 280 280 281 285 286 289 292 290 288 290 300 310 315 316 318 319 319 321 323 327 331 332 332 332 332 332 333 332 332 333 333 334 335 335 335 335 334 335 335 337 338 339 339 339 339 340 342 343 344 344 345 345 345 345 344 343 342 342 341 342 342 345 348 349 350 351 353 354 354 356 358 358 359 360 360 360 359 359 361 361 361 361 361 360 360 358 357 355 353 352 350
291 292 293 290 289 290 286 284 283 284 286 286 290 289 291 297 304 309 316 317 317 318 318 319 319 322 327 330 331 332 333 333 333 333 333 333 334 334 335 335 335 335 335 335 335 336 338 339 339 339 339 340 341 344 344 344 345 345 345 344 344 344 345 343 342 344 342 344 346 349 349 350 352 354 355 356 356 358 358 359 360 360 360 359 359 360 360 360 360 359 359 359 357 357 354 353 353
291 291 289 291 293 292 290 296 294 290 285 287 288 291 298 302 300 305 313 314 314 316 316 317 317 320 322 327 331 332 333 333 333 333 333 334 334 334 334 335 335 336 335 334 335 336 338 339 339 339 340 340 341 343 343 344 344 344 344 344 344 344 344 342 341 341 340 342 345 347 348 349 351 353 354 356 355 357 358 359 359 359 359 359 358 359 359 359 359 359 358 358 357 358 357 355 353
290 286 289 295 296 293 290 286 283 281 282 284 290 292 291 291 290 301 311 310 311 312 314 316 317 318 319 321 324 331 333 334 335 335 335 335 335 335 334 335 336 336 336 335 335 336 338 339 340 339 340 339 340 342 343 344 344 344 344 344 344 344 344 343 343 341 340 341 342 344 346 348 349 352 353 354 355 356 357 361 359 359 359 359 358 358 358 358 359 358 359 359 358 358 358 357 356
292 291 297 292 288 289 287 286 283 282 283 284 290 293 292 291 291 298 308 308 309 311 313 314 315 316 317 319 322 325 331 334 335 335 335 335 335 335 335 335 336 336 338 336 336 336 337 339 340 340 340 340 341 342 344 345 345 344 344 344 344 344 344 344 344 344 341 339 340 342 343 346 348 351 354 354 355 355 357 359 359 358 359 359 358 357 358 357 358 358 357 357 358 358 357 357 357
294 295 291 293 291 289 285 290 286 285 281 282 285 289 288 296 294 296 308 309 310 311 311 312 315 316 317 318 319 322 326 332 334 335 335 335 337 336 335 335 335 336 337 337 336 336 336 338 340 340 341 341 342 342 344 344 344 345 344 345 345 345 345 344 345 344 340 339 340 341 343 344 347 351 352 353 354 355 356 357 358 358 358 358 358 357 356 357 357 357 357 357 357 357 356 356 356
287 288 287 288 288 291 291 289 288 286 281 280 282 284 290 295 301 305 310 311 311 311 311 312 314 316 317 318 318 320 323 326 333 336 336 336 336 336 336 337 336 337 338 338 336 335 336 338 339 340 340 340 341 342 343 344 345 345 345 344 344 344 343 344 344 344 342 340 340 342 342 345 348 349 352 352 353 355 356 357 358 358 358 358 358 358 357 357 356 356 356 357 357 356 356 356 357
288 286 285 286 285 284 283 285 288 288 283 281 282 285 292 299 308 312 312 312 312 313 312 312 313 315 317 317 318 319 320 324 326 333 337 337 337 337 337 337 337 336 336 337 336 336 336 337 338 340 340 340 340 342 343 344 345 345 345 345 345 344 344 344 343 344 344 341 340 340 342 346 347 348 351 352 353 354 355 356 357 358 359 358 358 359 357 357 356 355 354 355 356 356 356 355 356
Wind_Speed
8 4 5 4 2 2 1 1 1 1 2 2 2 0 1 1 1 1 3 2 4 1 1 4 7 5 1 2 4 4 3 8 1 6 4 1 5 9 7 7 8 6 5 3 2 2 3 5 9 12 12 13 13 13 13 13 14 13 13 13 12 12 12 12 12 11 11 11 11 11 11 11 11 11 10 10 10 10 10 10 10 11 10 10 11 12 13 13 8 9 9 9 9 9 9 9 11
5 5 5 3 2 1 1 1 1 0 2 2 2 1 1 1 0 1 3 1 1 3 1 6 7 7 7 11 9 4 5 6 3 3 4 6 8 6 6 8 9 8 6 4 3 3 3 5 9 11 12 13 13 13 13 13 13 12 12 12 12 11 11 11 11 11 11 11 11 11 10 11 10 10 10 10 10 10 10 11 10 11 11 10 11 12 14 13 10 8 9 9 9 8 8 11 10
5 5 5 1 2 1 0 1 2 1 2 1 1 1 1 1 3 5 3 4 5 4 4 7 7 5 4 4 5 4 1 5 6 5 5 11 13 6 7 8 8 7 6 3 4 3 3 5 8 10 12 12 12 12 12 12 12 12 11 11 11 11 11 11 11 11 11 10 10 10 10 10 10 11 10 10 11 11 11 11 11 12 12 11 12 14 14 15 9 8 9 9 9 10 8 10 11
5 3 5 4 1 1 1 1 2 1 2 1 2 2 3 1 4 5 5 8 6 4 2 3 5 2 2 8 4 5 5 4 2 8 8 8 2 9 9 9 8 6 5 4 3 3 3 8 9 9 11 11 11 12 11 11 11 11 10 10 10 10 10 10 10 10 10 10 9 9 9 9 9 9 9 9 9 9 11 11 11 11 11 12 11 13 15 16 8 5 6 7 9 9 9 9 10
5 3 2 1 1 1 0 1 1 2 2 1 1 1 2 2 4 6 7 4 3 1 2 3 4 2 1 6 1 1 3 7 7 3 6 3 8 9 10 10 8 7 5 4 4 3 3 9 8 9 10 11 11 11 11 11 10 9 9 10 10 10 10 10 9 9 9 9 8 8 8 8 8 8 9 8 8 8 8 8 8 10 9 11 10 12 14 16 10 7 8 8 9 7 8 8 7
4 2 2 2 1 1 1 2 2 2 2 1 2 1 2 3 6 7 7 5 4 5 2 3 3 4 4 4 2 2 6 4 6 4 6 7 12 11 11 10 8 6 5 4 4 3 3 9 8 8 9 10 10 10 10 10 9 9 9 9 9 9 9 9 9 9 8 7 7 8 8 7 7 7 8 8 10 10 9 10 10 6 11 10 11 12 13 16 12 9 8 7 9 11 8 7 7
4 2 1 2 2 1 1 2 4 2 1 1 1 2 3 4 5 6 6 5 4 6 2 4 9 8 6 2 4 3 1 7 4 5 4 11 12 11 11 9 9 7 6 4 4 4 5 9 9 8 9 10 10 9 9 9 8 8 9 9 9 9 9 8 8 8 8 8 7 7 7 6 7 5 6 9 10 8 10 10 8 4 9 10 11 11 13 15 15 13 11 6 6 8 8 8 7
2 2 2 1 1 1 1 3 4 1 0 0 1 3 2 5 5 4 3 2 3 2 5 5 2 6 4 1 3 2 5 4 8 9 12 11 12 11 10 9 9 8 6 5 4 4 8 9 9 9 10 10 10 10 9 9 8 8 9 9 9 9 9 8 8 8 7 7 7 6 6 5 5 6 7 13 11 10 10 10 7 2 6 8 10 12 10 14 16 16 15 14 10 10 10 10 10
1 1 1 2 1 1 2 3 2 1 1 2 2 3 5 2 1 2 4 2 5 5 6 5 2 5 3 7 4 5 6 9 11 12 12 12 13 12 8 9 9 8 7 6 5 5 5 9 9 8 11 10 11 10 9 9 9 9 9 9 9 9 9 8 8 7 7 7 6 5 5 5 4 7 16 12 9 9 6 8 9 7 3 8 10 10 13 13 13 12 12 11 11 11 10 11 10
1 1 0 1 2 2 3 2 1 1 2 3 4 4 2 1 2 3 5 5 3 7 4 3 2 7 7 8 5 3 5 11 12 12 11 11 12 11 10 8 8 10 8 6 5 5 4 10 11 10 10 10 11 10 10 9 8 9 9 9 9 9 8 8 8 7 8 6 6 5 5 6 8 14 15 9 7 7 8 9 10 10 6 9 5 10 12 12 12 12 13 13 13 12 10 10 10
1 1 2 1 1 1 1 3 1 1 2 2 2 2 2 1 3 2 2 5 1 3 7 8 7 8 5 5 3 5 9 11 12 13 11 11 10 11 9 8 8 7 8 7 6 5 5 4 11 10 10 10 11 11 8 10 8 10 10 10 9 9 8 8 8 7 6 6 6 5 6 7 12 12 12 11 9 8 8 8 8 11 10 6 4 9 11 12 12 13 13 12 12 13 10 9 10
1 1 0 1 1 1 1 1 2 0 1 2 2 2 1 3 2 3 5 6 5 7 5 2 5 6 7 4 3 7 9 9 10 10 10 10 9 9 9 7 8 7 7 7 6 5 3 3 4 9 11 10 10 10 10 10 10 9 10 10 9 9 8 8 8 7 6 5 4 4 7 8 10 12 11 10 9 9 8 8 8 9 8 5 5 9 10 11 12 12 12 13 12 12 9 10 9
2 0 2 1 2 1 2 1 0 1 0 0 3 2 2 4 2 4 3 5 4 6 3 2 12 2 5 4 5 9 11 9 9 10 10 8 9 8 8 7 7 8 7 6 5 4 5 4 4 3 6 10 12 11 10 9 10 10 11 10 10 9 9 8 7 7 6 5 4 6 7 8 10 11 10 9 9 9 9 8 8 8 7 6 7 7 10 10 11 11 12 13 13 11 9 8 8
2 1 2 2 1 1 1 0 0 0 2 1 1 3 1 2 2 4 4 6 4 1 0 10 5 5 8 8 7 8 8 10 12 10 8 9 8 8 9 7 8 7 7 6 5 4 4 4 3 3 6 2 4 7 8 7 8 10 10 10 10 9 8 8 7 7 6 5 4 5 7 9 11 10 9 9 9 9 9 9 8 8 5 5 8 9 9 9 11 10 11 13 13 10 9 9 8
3 1 1 1 2 1 2 1 4 2 2 2 3 5 3 3 5 5 3 8 1 3 7 4 5 5 5 11 10 9 10 12 11 10 10 10 10 9 9 7 7 6 6 5 5 5 4 4 4 5 5 4 5 3 4 4 5 10 9 9 9 9 8 8 7 7 7 5 4 5 7 9 9 9 8 6 8 8 7 9 8 6 4 5 8 9 9 9 10 10 11 11 11 10 11 10 9
2 2 0 2 3 0 1 1 1 1 2 2 4 4 5 4 3 5 1 0 3 5 5 3 2 1 7 3 7 12 14 13 10 11 11 11 10 8 8 7 6 5 5 5 5 4 4 5 4 4 4 5 4 4 3 5 6 6 9 9 9 9 8 7 7 7 6 5 5 5 8 6 8 7 9 6 6 8 7 6 5 4 4 5 8 9 9 9 9 10 11 11 9 9 10 12 11
1 1 1 1 3 1 1 1 3 1 2 3 6 6 4 5 2 3 1 1 9 6 1 4 2 1 11 4 12 14 14 11 12 13 11 9 8 7 6 5 5 4 4 4 4 4 5 6 5 4 4 5 4 3 4 3 5 6 7 8 9 8 7 6 6 6 5 5 7 8 5 3 5 5 6 5 7 6 9 9 5 3 5 7 8 8 8 9 9 9 11 11 8 9 9 9 10
1 2 1 2 3 1 3 3 5 1 5 5 7 6 7 8 4 3 2 6 3 3 3 4 7 7 9 13 14 14 13 14 13 14 11 10 8 8 8 7 6 6 5 5 4 4 5 5 5 5 4 4 4 3 3 2 4 3 2 4 3 5 4 6 4 4 4 3 8 6 4 4 5 5 4 4 4 5 6 7 6 6 6 6 8 8 8 8 9 9 9 9 9 8 8 4 4
4 0 1 4 3 4 1 1 3 5 2 7 6 4 5 6 8 4 5 4 5 5 2 8 9 10 12 14 16 13 13 13 13 12 13 12 9 11 9 8 6 5 6 5 5 6 5 4 4 5 5 4 4 4 4 4 5 5 2 4 4 6 5 5 5 4 4 5 4 4 4 4 4 6 4 4 4 6 5 6 6 6 7 6 7 9 8 8 8 8 9 9 9 8 4 3 3
4 1 2 5 4 4 4 2 5 1 8 8 8 4 4 6 5 4 5 7 6 7 9 9 10 12 14 16 15 13 13 13 12 12 12 11 10 10 10 10 7 6 7 7 7 5 6 5 4 5 5 4 4 4 3 4 3 4 4 4 4 4 4 4 5 4 4 4 4 4 4 4 4 4 7 10 8 4 3 6 5 6 6 10 9 6 7 8 9 9 8 8 6 3 3 3 3
2 3 5 4 1 1 2 2 1 2 9 9 6 4 5 7 5 5 8 8 5 4 7 10 15 16 16 17 16 13 14 13 12 11 11 10 9 7 7 9 8 7 6 6 5 5 6 6 5 4 4 4 5 4 4 4 4 4 4 4 4 4 4 4 4 4 4 4 4 4 4 4 4 4 5 4 4 4 4 3 3 3 5 5 7 6 5 4 5 4 3 4 4 3 4 3 3
0 6 4 6 5 4 4 1 4 5 4 8 6 9 6 6 5 6 12 10 10 10 9 7 12 17 19 18 15 13 14 13 13 12 12 12 12 10 7 4 3 4 6 7 8 7 6 6 5 5 5 4 4 4 4 4 4 4 4 4 4 3 4 4 4 4 4 4 4 4 4 4 4 4 4 5 5 5 4 3 3 4 5 5 4 4 4 4 4 3 4 4 3 3 3 3 3
4 3 6 7 8 8 3 4 6 9 6 8 9 5 7 7 6 6 12 6 1 6 6 11 14 17 19 17 15 14 15 14 14 13 13 13 11 9 9 8 7 7 6 6 6 6 7 7 6 5 5 4 4 4 4 4 4 4 4 4 4 3 4 4 3 3 3 3 4 4 4 4 4 4 4 4 5 5 4 3 4 4 4 4 3 4 4 3 3 3 3 3 2 3 3 3 3
5 6 3 9 4 8 6 3 7 5 12 10 4 7 9 8 7 6 9 2 6 9 8 13 13 14 17 17 15 16 15 15 14 12 11 12 13 12 11 10 7 5 6 6 6 7 7 8 7 6 5 4 4 4 4 4 3 4 4 4 4 4 4 4 3 3 3 3 3 3 4 4 4 4 4 4 4 5 4 3 3 4 3 3 3 3 3 3 3 3 3 3 3 2 2 2 3
5 6 4 6 5 7 7 3 7 6 4 6 7 9 9 8 4 8 9 5 8 10 12 13 14 15 14 15 14 14 13 12 12 10 8 7 8 8 7 6 6 6 7 7 6 8 8 7 7 7 6 5 4 4 4 3 3 3 4 4 4 4 4 4 3 3 3 2 2 3 4 4 4 4 4 4 4 4 4 3 3 3 3 3 3 2 3 2 3 3 3 3 2 2 2 3 2
5 10 6 6 8 9 6 3 7 8 4 7 7 6 2 3 6 6 6 6 9 11 14 14 15 16 15 14 14 14 14 14 13 12 12 9 10 11 9 8 7 8 8 7 7 7 6 6 8 8 6 5 5 5 4 4 3 4 3 4 4 4 3 4 4 3 3 3 3 3 3 4 4 4 4 4 4 4 3 3 3 2 3 2 2 2 2 2 2 2 3 3 3 3 2 2 2
1 3 6 8 9 8 4 6 7 7 5 10 9 5 4 4 2 3 6 8 10 13 14 15 16 17 15 12 13 12 14 15 14 11 9 8 10 11 10 9 9 8 7 7 7 6 6 7 7 7 6 7 5 5 4 4 4 4 3 3 4 4 4 4 3 3 3 3 3 3 3 3 3 3 4 4 4 4 3 3 3 2 2 2 1 1 1 1 1 1 2 3 3 2 2 2 2
6 6 6 6 7 5 6 2 8 7 2 6 6 3 3 4 1 4 8 10 12 14 14 15 15 16 14 12 13 11 12 11 10 11 13 13 11 10 11 10 9 8 8 8 6 6 7 8 7 7 7 6 6 6 5 5 4 4 3 3 4 3 4 4 3 3 3 3 3 3 3 3 4 3 3 3 4 3 3 3 3 3 2 2 1 1 1 1 1 1 1 1 1 1 2 2 2
4 4 4 7 7 7 2 7 9 10 3 8 7 6 1 4 5 3 9 12 13 14 14 16 15 15 14 12 12 11 11 11 10 10 12 10 10 10 12 10 11 10 7 8 7 8 9 8 8 8 7 6 7 7 6 5 4 4 4 4 3 3 4 4 4 4 4 3 3 4 4 4 4 4 3 3 3 3 3 3 2 2 2 2 2 2 2 2 2 1 2 2 1 2 2 2 2
4 1 2 6 6 6 4 4 5 7 3 11 9 2 6 12 6 3 10 13 14 13 13 14 13 13 13 11 11 11 11 12 11 11 10 10 10 10 11 10 10 9 8 7 8 9 7 6 6 6 7 8 8 6 6 5 4 4 3 3 3 4 4 4 4 3 4 3 4 4 4 4 4 4 4 3 3 3 2 2 2 2 1 2 2 2 2 2 2 1 1 1 1 2 2 2 1
1 2 2 0 4 3 6 0 8 7 3 10 5 3 6 6 7 4 10 14 16 14 14 14 13 13 13 11 10 12 12 12 13 12 11 11 10 10 11 10 10 9 7 8 10 10 9 7 7 6 7 8 8 7 7 5 4 5 4 4 4 4 4 4 4 4 4 4 4 4 5 5 4 4 4 4 4 3 3 2 2 2 2 1 2 2 1 2 2 1 1 0 1 2 1 1 1
2 1 2 3 1 4 5 3 10 10 2 9 3 4 7 4 6 8 9 12 15 14 14 14 13 13 13 12 11 12 12 12 12 12 12 12 11 10 11 11 10 10 11 10 9 9 9 8 8 8 8 8 7 7 6 5 5 5 4 4 4 4 4 4 4 4 4 4 4 4 5 5 5 4 4 4 4 4 4 3 2 2 1 1 1 1 1 0 1 1 1 1 1 2 2 2 2
4 2 2 1 1 3 5 1 5 3 5 4 7 4 4 3 6 11 10 12 13 13 14 14 14 15 13 13 10 10 11 11 11 12 13 12 11 10 10 10 11 12 11 10 10 10 9 10 9 9 10 9 8 7 6 5 5 5 5 5 5 4 4 4 4 4 4 4 4 5 5 6 5 5 4 4 5 5 4 4 3 4 2 2 1 1 0 0 0 1 2 1 0 1 1 3 2
3 2 0 1 0 2 1 5 3 0 9 5 7 4 4 2 4 11 11 12 12 12 14 14 14 13 13 12 11 11 12 12 14 14 14 13 11 11 10 11 12 11 11 11 11 12 11 10 9 9 8 9 8 7 6 5 5 5 4 4 4 5 5 3 3 4 4 3 4 4 6 6 5 6 5 5 4 4 4 4 4 4 3 3 3 2 1 1 1 1 1 1 1 0 1 2 2
2 1 2 3 1 1 2 2 1 2 3 5 8 8 8 3 5 11 13 13 13 13 14 15 14 13 13 12 11 12 12 14 14 13 14 14 13 12 11 11 11 11 10 12 11 10 9 9 8 9 9 8 8 7 5 5 5 4 3 4 4 4 3 3 3 4 3 4 4 4 6 6 6 6 6 6 5 5 4 4 4 5 4 4 3 3 2 2 1 1 1 1 1 1 1 1 1
3 1 1 1 2 2 2 4 3 8 4 4 4 9 11 6 4 6 10 13 14 11 10 11 12 12 12 12 11 11 12 14 12 12 13 13 12 12 11 10 10 10 10 10 11 10 9 9 8 8 8 8 7 6 5 5 5 5 5 3 3 3 3 3 3 3 3 4 3 4 5 5 6 6 6 6 5 5 5 5 5 5 5 4 4 3 3 3 3 3 2 2 2 2 1 2 1
2 1 1 2 3 3 3 3 6 2 3 6 6 8 10 6 7 9 12 12 10 10 12 11 12 12 13 12 13 12 12 14 11 13 13 14 14 12 11 11 11 11 10 11 11 11 10 11 10 10 9 8 7 7 6 6 6 5 3 5 5 4 4 3 3 3 3 3 4 4 4 5 5 6 6 5 5 5 4 4 4 4 5 4 4 5 3 3 2 3 2 2 2 2 1 0 2
1 0 1 4 0 5 2 3 3 1 3 3 7 8 9 9 5 9 10 12 15 15 14 13 14 14 13 14 14 13 10 7 10 11 12 13 12 13 11 10 10 12 9 10 12 12 11 10 11 10 8 9 9 9 7 6 5 5 5 5 4 3 4 4 4 4 4 3 4 4 4 4 5 6 6 5 5 5 4 4 5 4 5 5 4 3 3 3 3 3 2 2 1 1 1 1 2
1 2 0 2 5 4 8 4 2 1 3 7 1 3 8 10 9 9 14 16 14 15 18 19 18 16 14 14 14 13 10 10 12 14 14 13 15 14 12 11 11 14 13 13 12 12 11 11 10 9 9 10 9 9 7 7 5 5 6 4 5 3 2 3 2 1 2 3 3 4 4 4 6 5 5 6 5 5 5 4 4 4 4 4 4 4 4 3 4 4 4 3 2 0 2 2 3
2 1 1 6 2 2 4 5 1 1 1 4 3 5 7 6 5 10 14 16 13 15 15 13 15 18 18 19 17 14 13 12 13 14 15 14 14 14 13 12 12 12 11 11 12 13 11 10 10 10 9 9 9 9 8 6 5 4 4 4 5 4 4 3 3 3 3 3 4 4 3 4 6 5 6 5 5 5 5 5 3 4 4 5 4 4 4 4 4 3 3 3 2 1 1 1 2
1 3 3 2 1 2 5 5 7 6 4 5 2 2 6 4 3 4 9 11 10 10 9 8 9 12 13 9 9 12 14 13 12 13 13 14 14 14 14 13 12 12 12 12 12 12 10 12 11 11 10 10 9 9 9 6 6 4 4 4 3 3 4 4 3 2 4 3 2 4 5 5 6 5 6 6 5 5 5 5 5 5 5 5 4 4 4 5 6 5 5 4 4 2 1 2 1
2 4 8 5 3 3 4 4 6 7 6 2 3 4 2 2 3 7 4 8 11 9 11 13 13 12 10 12 14 13 12 12 14 14 13 13 13 13 13 14 14 13 13 13 13 13 12 11 11 10 9 8 9 9 9 8 7 7 7 7 6 5 5 5 6 7 5 5 6 4 4 4 5 5 5 6 5 5 6 6 5 5 5 5 5 4 4 3 4 5 5 4 3 3 1 1 2
1 5 7 8 7 6 5 2 1 2 1 1 3 3 6 5 2 5 6 10 10 8 14 14 13 12 12 13 12 13 14 13 12 12 12 13 14 14 14 14 15 14 13 12 11 12 13 12 12 12 10 9 8 9 10 9 8 7 9 9 8 9 8 7 5 5 6 5 4 4 4 4 5 5 5 5 5 6 5 5 6 5 5 5 5 4 4 4 4 4 3 3 4 3 3 2 3
4 3 5 5 4 4 4 3 5 5 2 5 3 3 2 6 7 4 6 8 9 8 11 14 14 13 14 13 13 13 14 14 13 14 14 15 14 15 16 15 14 15 13 11 12 11 13 13 12 12 10 10 9 9 10 10 10 9 8 7 7 8 8 7 5 5 4 4 5 5 4 4 5 5 4 4 5 6 5 5 6 5 5 5 5 5 4 3 3 2 3 3 1 3 5 4 3
5 4 7 6 7 7 4 4 4 2 1 8 6 1 0 2 6 3 7 6 7 12 12 14 15 14 14 16 16 16 16 16 15 14 15 16 16 15 15 15 14 13 12 13 12 12 12 12 12 11 11 10 9 11 11 10 10 10 9 7 7 6 6 5 5 4 5 4 6 4 5 4 5 5 4 4 4 4 5 6 6 6 6 6 4 3 3 3 5 4 4 3 3 3 4 3 3
7 4 3 2 3 3 4 4 3 1 1 5 5 1 1 5 6 2 1 5 10 15 16 14 13 15 16 17 17 16 14 14 15 16 16 16 16 15 14 14 13 13 12 12 13 12 11 11 11 12 12 10 10 12 12 12 11 9 9 8 9 6 5 4 5 6 6 5 6 6 6 5 5 5 6 6 5 5 5 6 5 5 5 5 4 4 4 4 4 4 4 5 4 4 3 4 5
2 4 2 1 2 0 2 3 3 2 1 7 7 3 2 2 2 4 9 8 15 11 9 8 9 12 16 17 17 16 14 14 14 15 15 16 15 14 12 14 15 13 11 12 12 11 11 11 12 13 13 10 10 12 12 13 11 10 10 9 9 8 7 6 6 6 6 6 6 7 6 6 5 6 6 6 7 7 7 7 6 5 4 4 3 4 4 4 3 4 4 4 4 5 3 4 3
2 0 2 3 0 3 2 2 2 3 3 7 4 4 5 4 3 9 11 15 10 7 13 16 16 18 17 15 15 16 16 14 14 14 14 14 13 13 13 14 14 14 12 12 12 12 12 12 12 14 12 12 11 11 12 12 11 11 10 10 10 9 8 7 9 9 8 8 8 7 6 5 6 6 6 6 7 7 6 7 7 5 4 4 4 4 3 3 3 3 3 4 4 3 2 3 4
4 3 4 3 1 2 2 0 2 3 4 1 1 5 4 3 4 4 11 13 13 13 10 11 15 17 16 15 14 13 13 12 13 14 13 13 14 15 15 14 13 13 13 14 14 13 12 12 14 14 14 13 12 12 13 13 12 11 11 11 10 8 9 9 8 8 8 8 7 7 6 6 5 6 7 8 7 8 7 6 7 6 5 4 4 4 3 3 3 3 4 4 4 5 5 4 4
6 3 5 4 1 1 2 2 1 2 6 2 1 1 1 2 0 8 11 11 10 13 15 15 10 12 11 13 14 13 13 13 13 12 13 13 14 14 15 14 14 13 15 15 14 13 12 12 13 14 15 14 12 12 13 12 13 12 11 10 10 9 9 9 8 8 7 7 7 7 7 7 7 7 7 7 6 6 5 5 4 5 5 4 5 5 4 4 4 4 4 4 5 4 3 5 4
2 1 2 6 5 3 3 3 4 6 6 1 2 2 3 5 2 4 8 6 9 12 15 13 16 9 8 7 6 8 10 12 12 13 14 15 15 16 15 15 14 14 15 15 14 13 13 13 13 15 14 13 13 13 12 13 12 12 11 10 10 8 9 8 8 7 7 7 7 7 7 6 6 6 6 6 6 6 6 5 5 5 5 5 4 4 3 4 4 3 3 4 3 3 4 3 3
1 2 3 5 1 3 1 5 3 3 3 2 1 2 1 1 7 6 10 10 14 16 17 18 18 16 10 6 9 11 13 13 13 14 15 16 14 14 14 13 14 14 15 14 15 13 14 14 14 15 16 15 14 13 13 13 12 11 11 11 11 10 8 7 6 6 6 7 8 7 7 7 6 5 5 5 6 6 6 6 5 6 5 5 5 5 5 4 4 4 3 3 4 2 4 4 4
3 3 2 3 3 2 2 1 1 1 5 3 1 3 7 5 2 14 17 16 18 18 19 18 17 17 16 7 7 11 13 13 13 14 15 15 13 14 14 14 14 14 14 15 15 15 15 14 14 14 14 13 14 15 14 13 12 11 12 12 11 10 10 10 9 9 9 7 6 7 7 6 6 6 6 5 6 6 6 6 6 6 6 6 5 5 5 5 4 4 4 4 5 3 4 5 3
1 2 2 3 1 3 2 2 2 2 4 1 5 3 6 10 4 12 17 20 20 18 18 14 16 17 17 14 14 9 12 14 16 16 14 15 16 17 16 15 16 16 17 16 16 15 14 15 15 16 14 15 14 14 13 12 13 12 12 12 11 12 12 11 10 9 8 7 6 6 5 6 8 6 6 5 6 6 6 7 6 6 6 6 6 5 6 6 5 4 5 5 4 4 4 3 3
4 5 1 4 2 1 2 3 1 3 1 3 2 3 5 6 6 10 17 20 18 18 16 18 19 19 16 16 16 19 11 12 12 12 12 13 15 16 16 16 17 17 17 16 16 15 13 13 14 16 17 17 17 14 13 11 12 11 10 12 13 11 10 10 9 8 8 8 9 8 8 8 6 6 6 6 6 6 6 6 6 6 6 6 6 6 6 5 6 5 4 4 4 4 4 5 4
4 1 5 3 4 3 3 0 1 4 3 3 0 4 4 4 5 6 10 11 14 14 16 14 15 14 14 14 16 14 17 10 12 13 13 14 16 17 18 17 17 17 16 15 16 14 16 15 15 14 14 13 13 14 14 13 13 11 11 10 11 11 11 11 10 9 9 10 9 9 8 8 8 7 7 7 7 7 7 7 6 6 6 6 6 5 5 5 5 5 4 4 4 5 4 5 4
9 10 7 6 3 2 2 2 2 0 4 2 5 3 1 5 5 5 6 9 10 13 13 12 11 12 14 14 14 16 13 17 10 13 13 13 13 14 15 16 15 14 13 14 15 17 16 14 15 15 15 15 14 14 13 13 12 12 12 13 12 11 11 10 10 10 10 10 8 8 8 8 5 7 7 8 8 8 8 7 7 6 7 6 6 6 5 5 6 6 5 5 4 5 5 4 4
5 3 6 4 5 4 2 1 2 2 4 1 5 5 2 2 4 4 7 6 9 10 11 11 13 13 13 14 17 16 17 14 17 12 12 10 11 11 11 10 10 11 13 15 15 14 15 16 15 15 14 14 15 14 13 12 11 11 13 13 12 11 11 10 11 11 11 10 9 9 8 6 8 8 7 8 9 7 7 8 7 7 7 7 7 6 6 5 6 6 6 4 4 5 5 5 4
Wind_Direction
146 130 100 115 124 134 147 234 260 184 197 244 279 271 17 335 23 133 86 154 124 30 359 108 108 106 139 178 134 110 339 139 318 141 211 189 124 127 132 135 132 131 136 139 145 151 159 142 126 125 122 121 121 124 122 124 124 123 122 121 121 122 122 123 122 121 123 125 126 128 129 129 128 125 125 126 129 131 133 135 138 134 131 126 124 126 114 100 109 103 103 108 104 106 110 105 111
135 119 117 128 141 186 175 242 224 312 222 275 246 36 329 343 237 63 124 104 62 130 91 96 91 91 70 103 124 122 38 28 28 98 82 115 108 102 140 138 139 139 141 144 138 147 143 133 133 127 123 125 125 127 127 127 124 120 118 120 123 124 123 122 122 123 125 127 127 128 127 127 124 122 122 126 127 132 138 135 134 132 130 137 125 115 111 112 116 116 110 113 112 110 109 119 112
138 134 121 151 141 232 287 169 251 261 319 321 5 304 300 55 85 78 80 99 109 122 116 103 82 45 72 92 49 14 225 49 91 102 111 137 126 151 144 139 135 134 134 131 131 127 119 135 134 131 130 128 124 124 125 126 122 119 121 124 127 126 124 124 124 127 128 128 126 124 124 125 125 125 135 134 138 140 135 135 141 140 135 127 119 114 113 112 121 124 118 121 115 112 119 116 114
138 150 149 182 144 271 210 193 257 291 310 26 298 4 22 60 103 104 106 109 116 136 121 71 51 264 82 74 96 71 81 110 104 133 133 162 143 143 141 138 132 125 118 122 122 114 122 141 136 135 133 129 126 125 127 123 122 123 127 129 127 126 124 123 125 126 127 124 121 122 120 122 126 128 131 130 128 136 136 144 137 128 118 120 122 123 114 106 102 127 122 122 115 115 118 109 101
144 175 160 228 172 310 45 301 291 296 321 9 347 11 57 114 136 117 106 117 95 99 70 127 91 356 70 89 110 140 184 94 129 136 120 90 116 136 136 131 128 127 121 114 111 109 131 135 143 140 136 134 130 129 126 125 127 129 130 130 130 128 125 124 124 120 119 120 120 118 118 120 124 127 126 129 127 104 101 101 94 96 119 118 110 111 113 111 133 126 110 112 111 112 114 104 107
97 130 227 315 51 131 255 309 281 300 280 276 270 50 123 115 122 118 114 105 89 72 83 81 119 146 56 33 351 72 126 136 154 116 138 136 136 137 133 130 129 123 111 102 103 102 108 136 143 142 142 137 136 132 129 130 132 132 131 132 132 131 128 125 123 115 103 101 109 113 110 117 120 128 133 128 110 102 111 96 96 130 118 109 127 124 118 117 126 118 103 109 127 130 117 132 133
149 145 217 221 256 226 21 308 290 329 275 258 265 135 130 117 117 127 125 97 32 80 6 101 114 109 84 113 74 69 16 124 136 142 137 138 133 134 134 130 126 119 110 106 99 101 120 139 148 150 150 147 142 139 137 136 133 132 135 133 134 127 121 110 115 118 119 116 111 112 111 114 118 130 128 110 92 98 87 86 82 124 112 124 121 116 116 123 121 124 111 112 139 135 141 135 117
167 358 194 294 299 106 307 284 266 215 272 222 67 117 131 122 127 127 113 94 126 88 94 117 100 88 77 73 122 43 47 54 96 103 122 133 133 133 134 134 127 125 115 106 99 109 140 147 149 152 154 151 147 149 149 141 139 140 140 140 135 131 123 119 118 117 120 118 119 116 115 115 125 123 105 72 67 50 71 93 108 105 115 112 111 114 115 116 125 128 144 149 125 108 89 82 88
126 223 262 288 334 186 294 278 282 219 304 54 71 102 110 102 79 88 71 63 100 92 119 130 160 82 120 93 70 86 77 98 101 118 129 134 135 135 135 135 135 130 120 113 112 122 146 155 148 159 153 149 149 151 149 150 154 149 143 140 136 132 131 129 125 130 130 132 129 121 124 122 114 83 67 75 96 113 112 100 99 63 73 113 109 125 107 103 103 106 105 100 89 81 82 85 93
321 246 31 318 329 5 297 306 36 332 43 16 117 115 109 52 84 52 107 91 79 111 81 60 75 116 128 96 100 80 118 114 118 123 131 136 133 131 130 132 132 130 126 124 124 139 151 161 158 168 155 152 148 151 154 152 156 150 145 144 141 138 136 134 133 140 135 133 131 135 130 117 83 73 84 99 122 121 114 111 110 108 47 58 91 92 99 99 100 100 93 87 86 83 79 89 89
83 190 269 333 17 319 352 314 359 330 69 125 83 101 86 63 88 66 35 93 325 114 117 103 76 119 109 95 65 103 116 119 128 136 138 137 133 130 126 126 127 128 130 132 135 137 155 170 160 158 154 156 156 148 156 144 163 157 150 140 142 139 140 137 137 135 130 134 140 143 127 107 97 99 119 138 136 126 112 109 119 116 123 125 98 99 99 100 98 95 94 95 95 90 99 98 97
288 103 334 95 300 177 246 280 310 56 103 145 98 155 138 97 91 97 113 106 119 127 144 177 153 133 88 117 123 124 123 121 125 131 136 135 128 125 124 126 127 125 127 131 127 127 133 146 142 158 156 159 152 140 152 160 158 155 147 148 146 142 145 146 145 144 139 133 137 138 125 116 115 121 124 128 127 124 128 127 124 118 125 129 126 104 99 99 98 99 101 94 86 89 81 93 104
286 3 101 63 251 224 252 340 280 173 105 190 155 136 115 124 133 130 97 85 131 125 148 171 144 199 114 123 116 128 132 127 129 136 138 134 125 120 119 124 125 127 127 123 118 120 125 126 129 166 154 161 146 152 152 161 157 158 155 154 148 147 153 145 149 142 141 138 138 139 135 127 110 108 119 128 128 129 134 129 123 122 129 136 113 100 101 101 100 98 100 95 92 94 88 82 91
233 204 124 311 289 265 255 232 146 41 291 141 71 147 129 97 75 112 120 107 138 76 104 129 119 115 95 115 138 143 139 139 139 142 133 123 119 119 121 123 127 125 122 120 117 124 125 124 102 107 124 141 116 140 153 161 166 161 154 153 149 150 146 148 147 144 138 135 156 159 140 121 113 118 123 124 126 133 133 131 125 129 132 133 116 108 102 99 94 94 92 99 104 106 111 98 90
241 211 65 186 294 332 237 119 210 171 258 165 148 146 147 62 109 115 103 129 116 122 111 44 148 97 191 162 157 161 150 148 147 137 124 118 115 116 120 122 120 120 122 117 112 122 121 108 105 111 110 115 114 115 106 170 181 163 156 150 141 147 153 149 144 147 141 150 160 160 118 103 102 104 106 117 123 127 126 121 127 129 134 130 119 106 100 96 98 99 91 89 93 98 93 102 90
227 303 343 323 291 285 246 146 58 93 253 150 139 144 105 77 100 123 12 26 115 117 128 129 258 226 145 200 147 142 143 148 139 127 123 118 114 112 114 117 117 116 115 113 118 125 115 113 117 104 101 110 112 107 126 133 199 173 150 141 146 152 156 151 146 138 141 150 129 91 83 102 107 112 125 115 131 119 106 94 105 131 126 120 106 107 99 97 95 97 95 84 84 98 101 102 106
225 32 293 6 298 199 260 142 137 221 190 113 148 169 141 134 46 66 200 16 131 152 246 134 196 88 144 121 134 135 143 138 129 128 123 121 124 121 115 113 118 118 117 112 121 129 118 122 119 112 115 118 107 110 128 143 135 173 143 155 155 155 151 141 133 129 144 132 99 85 88 49 109 129 117 143 136 122 123 125 145 128 131 116 107 107 103 97 96 91 94 106 99 86 87 89 98
79 231 148 263 219 184 223 176 185 177 136 155 167 179 128 138 152 128 130 54 61 46 75 83 55 75 103 118 123 139 139 133 137 137 137 133 136 136 137 142 146 153 142 132 137 130 120 125 126 119 115 113 111 107 93 56 120 100 266 112 151 121 134 130 123 123 111 72 111 114 152 142 109 88 109 131 125 110 108 119 139 141 131 124 121 109 101 95 93 94 94 103 99 92 74 50 59
223 214 144 245 197 237 196 242 143 130 219 152 159 177 154 150 146 196 137 134 128 96 81 103 87 93 109 120 136 147 137 139 143 144 145 144 148 148 151 152 155 147 152 149 145 139 129 132 125 118 116 118 113 102 104 164 104 137 245 104 96 127 139 140 126 116 83 115 95 97 71 70 82 117 135 119 79 96 117 122 121 122 110 109 103 102 103 96 92 94 97 93 86 75 63 51 54
226 173 234 255 225 268 265 212 195 282 134 149 159 180 169 142 141 179 149 146 148 152 143 121 125 132 134 137 147 146 142 143 147 148 149 149 149 151 155 160 163 170 162 163 156 141 142 143 130 121 122 124 113 101 93 101 83 100 87 91 106 113 107 105 104 108 99 88 94 86 80 63 65 70 110 111 105 92 73 65 62 61 89 90 72 68 77 94 64 66 74 65 57 51 41 52 61
204 186 216 237 265 304 299 148 257 120 149 146 156 148 144 162 144 155 135 120 201 199 189 164 153 148 145 150 153 148 148 149 151 154 152 150 149 154 163 170 170 161 154 151 148 147 147 145 133 116 117 118 116 109 109 110 98 89 85 88 98 101 98 90 95 96 91 82 83 83 80 70 58 63 72 72 88 105 79 60 13 29 58 59 66 57 54 40 46 49 28 38 39 32 40 39 45
325 234 266 287 322 311 290 26 122 125 111 133 149 159 172 123 130 163 159 168 195 192 181 143 147 148 148 156 159 150 153 155 158 161 162 160 160 160 159 146 111 130 147 160 166 159 155 149 139 128 122 129 122 113 121 128 115 113 103 108 99 87 99 94 90 95 92 89 84 90 76 76 66 69 62 73 80 83 69 52 47 52 60 59 62 72 52 49 40 30 28 30 16 23 44 61 61
261 282 254 247 253 259 267 154 150 138 141 151 170 175 116 156 174 182 180 182 111 139 151 144 154 158 155 154 155 155 159 163 166 167 164 161 161 162 164 161 161 160 163 157 160 164 157 158 150 133 139 133 119 109 104 110 116 117 108 115 109 101 96 99 98 93 94 101 100 106 99 91 84 73 73 72 79 100 91 51 59 50 63 62 46 85 66 53 42 23 17 13 355 14 37 81 105
220 263 310 292 264 250 251 212 161 166 154 179 152 126 153 157 167 182 187 178 152 144 141 147 150 152 152 156 166 162 164 166 169 169 170 167 165 166 166 168 170 147 149 154 162 165 168 172 159 151 139 144 133 117 113 113 123 122 129 117 107 130 115 108 103 103 105 100 116 110 107 103 112 94 83 76 82 86 88 75 61 58 55 54 44 65 76 46 30 23 13 355 4 19 36 71 87
227 269 250 262 262 248 256 193 175 170 160 121 139 157 187 177 157 147 201 167 148 143 137 144 147 152 160 159 161 160 160 163 167 164 164 164 162 153 159 161 159 153 163 161 160 168 173 169 163 159 151 150 134 128 127 126 134 119 123 118 135 146 121 123 118 113 108 121 109 111 116 110 101 106 100 99 92 79 87 81 71 63 51 42 43 37 59 47 34 20 14 355 4 23 38 54 78
202 232 258 283 279 275 268 187 180 164 147 146 139 188 133 185 123 186 177 163 155 140 140 147 150 156 165 167 162 164 166 170 167 168 172 165 161 158 169 169 166 173 175 159 157 166 166 160 169 168 160 152 145 143 139 147 160 151 141 142 155 142 134 128 131 127 137 128 126 121 114 117 121 124 120 119 109 99 94 89 79 62 70 43 47 47 38 69 38 13 2 9 24 21 46 40 86
189 272 264 265 271 285 274 201 179 167 160 162 160 175 165 219 155 233 167 160 150 140 147 152 156 164 168 166 165 167 168 173 173 161 158 165 168 170 171 170 177 176 161 167 163 164 163 162 167 163 161 169 152 160 161 158 167 177 156 141 158 138 146 137 140 136 137 150 146 134 120 121 116 111 115 120 109 107 99 104 85 91 79 66 47 74 45 74 66 35 348 6 16 9 26 14 83
309 278 299 286 279 276 251 201 150 149 154 168 130 91 140 215 318 226 165 156 151 146 152 158 163 167 171 165 166 169 173 171 166 165 170 169 176 174 174 177 177 167 172 175 168 159 164 170 166 165 164 166 167 174 178 174 183 184 166 153 163 152 148 152 151 148 163 160 155 147 137 128 130 112 119 116 114 115 107 101 104 98 97 94 91 101 88 58 60 15 39 37 52 24 34 22 38
266 311 327 297 329 323 251 159 173 165 140 160 120 78 141 225 230 180 154 153 154 151 157 163 166 170 172 165 165 170 174 171 172 176 181 180 174 176 179 180 171 170 177 170 163 166 173 169 166 169 165 169 170 180 181 178 175 180 172 181 169 165 163 157 159 166 162 157 168 163 146 149 148 138 139 147 142 117 116 108 110 110 112 100 98 91 74 54 61 64 71 77 60 47 42 24 30
313 290 189 334 343 318 295 103 145 162 150 160 151 207 232 218 215 158 151 153 152 151 161 167 169 171 175 169 168 172 174 173 179 184 179 177 178 179 181 179 176 172 166 166 162 176 172 169 164 164 170 174 182 183 176 174 180 180 181 178 181 176 173 167 174 148 160 158 166 171 156 165 148 145 142 150 119 128 123 119 130 131 114 118 99 63 40 28 46 63 48 27 36 47 18 2 31
213 261 73 294 16 275 320 35 149 156 155 175 190 238 283 234 188 169 163 155 156 161 165 170 170 173 176 176 168 175 180 182 183 182 181 179 178 181 183 175 175 169 160 166 176 175 172 168 166 170 173 178 186 184 183 182 176 179 179 183 187 188 183 177 165 152 163 163 166 168 170 174 159 150 154 155 156 149 147 148 136 155 136 108 96 57 82 22 47 56 42 24 14 40 11 351 354
350 32 295 326 145 274 314 93 163 163 161 189 146 304 253 264 175 156 170 161 158 162 168 171 173 177 177 179 172 178 182 184 184 184 183 181 179 180 180 180 174 170 172 175 173 170 174 170 171 170 170 179 186 187 184 180 180 182 182 186 190 193 187 187 177 167 157 155 164 168 170 177 165 166 160 152 163 165 163 165 161 163 188 158 115 83 70 56 12 49 31 53 329 329 342 330 10
354 80 270 320 45 267 350 166 201 46 99 183 194 213 315 306 158 157 168 166 166 163 170 174 175 179 179 181 177 180 178 186 187 187 186 183 184 180 181 177 177 178 173 173 172 173 176 174 173 172 174 180 184 188 181 173 172 181 186 193 189 191 194 199 179 152 152 154 159 168 169 182 167 172 166 165 165 172 165 155 162 170 202 198 157 131 204 244 78 23 21 38 56 308 346 321 2
317 25 219 206 72 333 4 309 144 159 144 189 234 237 228 292 176 157 168 171 168 171 175 178 178 180 181 180 179 182 184 184 191 189 188 185 183 182 180 180 180 175 176 176 175 175 178 176 176 175 172 177 181 184 182 170 178 177 186 198 191 192 206 194 166 157 162 158 158 169 171 180 168 176 173 170 171 175 169 162 163 170 185 175 172 162 206 213 223 145 153 29 36 212 316 344 341
216 355 21 339 19 314 267 360 302 175 236 191 210 242 260 327 162 169 172 174 177 181 178 180 181 182 182 185 184 185 187 190 195 190 185 185 183 182 180 181 179 176 176 177 176 178 174 177 175 177 169 175 180 180 173 159 164 176 178 188 205 203 207 189 159 174 170 155 169 159 170 177 170 171 170 171 169 183 170 166 164 180 192 174 178 171 174 205 203 106 188 193 339 252 225 226 244
140 138 165 198 357 305 335 280 270 185 206 242 195 219 245 232 185 181 171 175 185 186 179 178 184 186 186 189 191 187 191 197 192 187 185 185 185 181 181 179 179 179 176 175 175 176 179 177 179 178 174 172 169 172 164 157 160 179 189 195 219 215 196 186 180 188 157 171 171 163 168 171 163 168 173 173 175 173 168 181 175 178 197 170 182 192 198 188 186 169 208 218 304 314 246 207 181
117 105 118 256 276 273 264 264 269 183 191 229 221 234 240 239 184 187 183 176 182 178 184 187 187 188 192 194 197 194 192 196 186 186 185 185 186 183 182 177 179 180 177 174 174 178 181 181 176 184 178 169 168 174 178 172 175 181 186 198 208 194 187 185 191 180 185 180 167 167 166 171 162 165 172 170 175 185 174 170 167 181 188 180 196 207 196 190 193 171 180 223 210 269 308 73 219
183 56 301 301 174 286 217 255 272 291 170 267 232 231 242 242 204 190 181 179 191 187 186 189 188 193 195 195 198 200 193 176 178 187 189 185 186 185 181 180 177 176 183 177 179 181 181 182 185 184 173 175 178 181 184 178 182 184 171 186 174 160 167 179 199 200 196 178 167 168 171 167 171 172 175 176 177 184 168 174 185 183 175 196 199 195 183 186 174 156 145 188 282 204 262 202 222
95 195 224 321 281 246 278 260 294 274 143 255 339 218 249 244 212 194 186 190 193 194 189 190 185 188 194 199 199 196 187 188 183 190 187 187 186 184 183 183 182 184 180 180 184 179 180 183 188 182 183 179 181 180 178 185 182 183 177 163 172 147 201 207 213 185 168 169 166 169 170 167 175 176 178 181 182 188 186 183 194 187 191 190 183 191 189 186 179 183 182 182 179 322 266 250 212
164 110 121 238 240 43 313 292 98 53 201 282 218 211 267 268 241 206 197 192 196 198 197 193 189 189 193 198 192 191 192 189 189 187 189 188 186 185 185 184 185 184 181 183 181 181 181 186 184 183 187 185 179 181 183 180 166 167 172 154 162 156 180 167 138 117 152 159 177 169 177 174 183 182 180 184 191 188 189 194 187 193 198 197 189 191 201 200 183 180 197 198 130 204 325 277 200
264 186 196 190 136 209 176 266 341 320 286 227 265 3 309 284 225 222 209 195 194 198 193 196 202 210 207 196 195 196 194 192 193 190 189 187 187 188 187 187 183 185 185 185 183 183 183 185 185 184 184 188 184 179 176 159 139 127 129 91 114 106 63 112 128 151 177 188 169 182 193 176 188 187 186 190 193 188 189 195 190 195 196 197 195 200 200 202 195 189 189 175 176 170 267 302 327
324 225 203 196 159 213 268 296 352 11 330 343 131 24 309 289 262 219 189 176 201 182 187 198 200 204 194 197 202 197 200 196 195 196 191 187 187 189 191 187 186 189 188 187 184 183 181 183 182 182 182 187 186 178 168 159 163 158 151 153 166 184 176 164 189 192 179 189 208 187 173 177 181 195 195 191 194 188 195 198 196 190 196 193 198 202 203 173 178 187 192 181 190 197 185 117 321
108 273 190 190 187 203 233 268 68 327 164 298 64 86 276 317 253 217 187 195 195 174 193 199 200 199 199 203 202 199 197 197 201 199 193 191 189 190 192 190 191 191 192 184 182 183 183 180 181 180 181 186 184 177 169 166 159 168 177 183 183 187 190 208 197 187 183 195 172 170 182 172 181 191 195 192 194 199 194 199 204 206 203 196 197 192 195 191 185 194 164 179 207 140 140 203 215
227 234 152 150 162 187 224 192 177 228 281 294 37 136 196 310 292 223 186 188 191 195 200 201 201 200 201 201 204 203 200 199 196 200 200 198 193 191 192 193 193 195 188 181 183 182 183 182 180 181 181 181 182 176 175 173 170 176 183 186 184 189 196 201 186 184 181 171 178 192 176 186 192 198 200 192 197 202 201 205 208 209 211 202 197 198 202 191 176 201 184 190 133 172 176 196 211
211 212 156 157 174 194 179 153 188 237 20 293 335 339 95 274 275 314 143 166 202 212 206 205 199 199 202 202 206 205 201 199 197 198 201 201 200 195 191 193 196 192 186 185 184 184 184 182 179 178 181 180 180 177 177 180 177 176 181 183 191 199 192 182 165 167 174 172 185 182 190 188 194 204 205 199 198 199 206 210 204 209 212 211 201 196 196 179 185 173 169 154 190 204 197 189 141
268 176 159 150 148 176 158 173 147 297 74 271 288 236 162 285 295 60 102 188 215 216 213 206 198 197 201 204 206 205 201 202 202 202 202 203 203 201 193 190 190 193 191 187 186 183 181 177 178 179 185 185 180 180 179 182 180 174 178 186 190 188 182 162 163 174 178 177 186 192 194 187 194 196 206 209 211 212 213 214 204 204 209 204 205 192 182 186 182 185 182 186 182 198 207 181 198
128 69 109 61 49 51 45 81 113 63 305 258 245 242 145 298 276 189 150 208 211 216 220 206 198 203 206 208 204 201 199 201 202 203 204 205 203 200 190 190 194 191 189 185 186 184 179 178 180 183 187 184 183 182 181 184 183 179 183 183 188 184 178 167 169 187 177 177 189 193 189 194 187 199 199 208 211 213 215 216 214 211 211 213 212 188 190 192 190 185 183 189 188 188 181 182 207
158 99 183 100 326 25 57 351 54 138 264 258 262 170 147 154 326 351 314 326 322 248 214 204 203 204 204 204 203 200 200 200 199 199 204 203 201 202 195 196 193 191 185 187 187 183 181 183 182 185 185 185 185 186 184 186 186 186 186 182 186 186 175 177 186 188 187 188 191 190 191 182 196 198 200 205 211 210 211 214 215 208 205 204 215 209 193 193 185 169 175 182 200 202 156 158 176
94 98 56 105 248 70 262 72 173 187 178 253 87 156 73 224 174 294 345 359 356 347 311 261 223 211 202 200 197 197 198 196 197 199 199 198 200 199 199 199 192 189 189 187 187 184 184 184 185 184 188 186 185 186 189 189 187 188 188 187 188 181 182 183 188 190 186 191 192 191 178 191 184 195 204 208 211 208 208 212 212 211 205 200 204 197 200 180 175 174 184 189 191 194 186 168 169
46 129 142 97 117 74 180 266 252 331 285 256 244 320 232 215 324 9 7 348 352 352 357 349 293 239 220 204 194 191 193 195 197 195 199 200 199 199 200 196 192 191 192 189 187 185 185 186 186 187 191 186 184 186 190 192 193 191 189 188 187 180 185 186 189 188 190 192 188 195 193 191 190 196 190 203 191 191 196 204 205 206 205 197 193 192 188 183 182 189 183 188 201 208 174 179 189
261 171 134 170 140 155 183 184 162 194 192 246 298 114 219 145 188 21 14 343 356 1 4 359 3 330 231 213 204 200 194 198 194 195 199 199 198 196 197 196 193 192 192 190 188 188 184 187 185 190 190 189 186 187 188 193 195 193 190 190 185 185 185 187 191 189 183 189 196 196 200 197 195 198 194 202 186 186 190 188 197 205 202 196 188 185 186 182 190 194 193 204 204 187 198 178 177
253 168 83 78 194 142 147 205 147 167 142 73 187 191 196 92 178 45 18 12 14 9 7 6 3 359 339 181 186 197 202 203 199 199 202 201 195 194 197 196 193 192 192 191 189 187 187 189 186 190 190 186 188 188 191 192 194 193 190 189 189 187 187 183 183 189 192 192 191 196 201 201 202 193 199 190 192 189 187 187 192 205 199 196 187 183 177 178 178 184 205 192 214 180 195 202 198
230 65 113 163 171 112 89 61 323 101 63 168 249 0 336 295 329 6 359 8 14 11 10 7 2 359 1 340 230 206 207 205 204 205 203 199 192 194 196 195 193 192 191 192 191 188 188 186 187 191 192 189 190 190 191 192 192 190 193 192 188 186 187 187 191 192 191 192 194 199 200 200 196 198 197 187 188 193 192 187 192 201 199 196 189 183 175 174 174 189 200 196 212 198 192 213 194
62 64 244 302 145 136 125 188 344 56 139 224 34 52 3 29 310 344 350 7 6 7 6 1 5 7 6 352 337 278 224 210 211 209 204 197 196 194 194 195 194 192 191 192 191 189 188 188 187 188 189 190 194 193 194 192 190 192 192 192 191 190 191 194 191 188 183 183 199 201 196 194 205 197 188 187 186 190 198 195 193 200 201 193 196 183 174 173 168 187 197 206 212 185 198 199 204
105 146 317 136 131 169 315 99 134 117 173 117 92 61 74 32 306 338 1 359 352 357 357 9 9 5 358 348 340 336 274 235 220 215 207 202 201 198 196 196 195 192 190 190 188 185 187 190 192 191 190 191 189 191 194 194 193 194 193 192 191 192 194 193 189 180 173 187 196 198 201 207 193 189 188 188 184 188 190 197 193 196 193 201 193 185 171 172 173 179 189 207 199 188 198 209 204
18 353 28 17 93 100 77 50 181 114 199 86 36 35 47 338 322 341 355 351 352 352 1 8 9 4 360 353 345 340 335 256 227 219 211 209 207 201 196 196 193 191 188 188 186 186 190 190 190 193 195 192 189 191 190 192 193 194 196 194 196 194 192 190 187 178 182 191 196 195 203 203 204 187 191 185 187 187 187 191 193 192 197 200 194 188 175 168 173 187 184 199 196 185 200 210 214
353 26 7 6 358 238 97 36 61 59 159 154 138 55 36 314 312 2 358 354 352 4 0 358 357 5 7 2 355 347 345 344 274 225 221 215 211 206 204 199 195 189 187 184 185 189 191 189 193 192 190 189 191 195 193 197 191 196 192 193 194 194 195 193 190 189 189 193 189 192 199 207 188 202 188 187 190 191 189 193 190 193 196 199 202 191 178 170 175 184 187 193 186 187 201 215 204
54 59 57 297 0 32 81 85 341 54 83 172 109 126 180 302 347 14 14 350 2 6 6 0 1 3 8 13 8 2 356 346 347 301 228 218 209 210 211 203 188 190 187 188 189 188 189 191 193 192 192 193 192 192 195 195 194 195 196 195 196 195 194 191 192 192 197 192 190 193 194 185 201 209 193 196 196 187 189 188 192 195 197 196 200 200 181 175 178 180 188 185 189 188 203 210 191